[[{"header":{"parameterUnit":"m.s-1","parameterCategory":1,"la1":30.2991,"la2":30.254,"lo1":-89.0895,"lo2":-89.0444,"dy":0.0017,"dx":0.0017,"nx":28,"ny":28,"refTime":"2024-03-24T09:00:00:Z","depth":0,"parameterNumber":2,"parameterNumberName":"U-component_of_WINDS"},"data":[0,0,0,0,0,0,0,0,0,0,0,0,0,0,0,0,0,0,0,0,0,0,0,0,0,0,0,0,0,0,0,0,0,0,0,0,0,0,0,0,0,0,0,0,0,0,0,0,0,0,0,0,0,0,0,0,0,0,-7.663,-7.6632,0,-7.6815,-7.6817,-7.6819,-7.6858,-7.6857,-7.6856,-7.6854,-7.7037,-7.7043,-7.7049,0,0,0,0,0,0,0,0,0,0,0,0,0,-7.6308,-7.6314,-7.663,-7.6633,-7.6635,-7.6815,-7.6817,-7.682,-7.6859,-7.6857,-7.6855,-7.6854,-7.7035,-7.7042,-7.7049,0,0,0,0,0,0,0,0,0,0,0,0,0,-7.6466,-7.6316,-7.663,-7.6676,-7.6682,-7.6814,-7.6817,-7.682,-7.6859,-7.6857,-7.6855,-7.6853,-7.7032,-7.7041,-7.705,-7.7147,0,0,-7.7078,-7.7082,0,0,0,0,0,0,0,0,-7.6457,-7.6477,-7.6667,-7.6673,-7.668,-7.6812,-7.677,-7.693,-7.6859,-7.6792,-7.6854,-7.6852,-7.6963,-7.6978,-7.7017,-7.7156,-7.7163,-7.7079,-7.7085,-7.7089,-7.7091,0,0,0,0,0,0,0,-7.6446,-7.647,-7.6703,-7.667,-7.6678,-7.6687,-7.6707,-7.6801,-7.6886,-7.6797,-7.6801,-7.6822,-7.6966,-7.7008,-7.7021,-7.7166,-7.7079,-7.7087,-7.7093,-7.7096,-7.7396,-7.7398,0,0,0,0,0,0,-7.6427,-7.646,-7.6697,-7.6709,-7.6561,-7.6694,-7.6717,-7.6771,-7.6885,-7.6901,-7.6824,-7.6823,-7.6993,-7.701,-7.7028,-7.7149,-7.7089,-7.7097,-7.7102,-7.7393,-7.7396,-7.7399,0,0,0,0,0,0,-7.642,-7.6448,-7.669,-7.6586,-7.6617,-7.6702,-7.6763,-7.6776,-7.6817,-7.6905,-7.692,-7.6851,-7.6992,-7.7015,-7.7118,-7.7155,-7.7101,-7.711,-7.739,-7.7394,-7.7398,-7.7391,0,0,0,0,0,0,-7.6411,-7.6445,-7.6483,-7.6586,-7.6623,-7.6778,-7.6765,-7.6781,-7.6834,-7.6835,-7.6934,-7.6949,-7.6992,-7.7104,-7.7127,-7.7167,-7.7117,-7.7387,-7.7392,-7.7396,-7.7388,-7.7394,-7.7399,0,0,0,0,0,-7.6399,-7.6472,-7.6485,-7.6513,-7.6672,-7.678,-7.68,-7.685,-7.6837,-7.6875,-7.6933,-7.6946,-7.7149,-7.7114,-7.7141,-7.7184,-7.7385,-7.7391,-7.7396,-7.7385,-7.7393,-7.7399,0,0,0,0,0,0,-7.6368,-7.6486,-7.6502,-7.661,-7.6685,-7.6786,-7.6836,-7.6856,-7.6934,-7.6932,-7.6989,-7.7011,-7.7111,-7.7159,-7.7118,-7.7285,-7.7266,-7.7277,-7.7249,-7.7257,-7.7262,-7.7247,-7.7124,0,0,0,0,0,-7.6374,-7.6453,-7.6552,-7.6638,-7.6676,-7.675,-7.6798,-7.6831,-7.691,-7.6941,-7.7005,-7.7079,-7.716,-7.7212,-7.7291,-7.7397,-7.7419,-7.744,-7.7445,-7.7449,-7.7457,-7.7517,-7.7527,-7.7417,-7.7417,-7.7417,0,0,-7.6386,-7.6461,-7.6507,-7.6634,-7.6696,-7.6775,-7.6775,-7.6859,-7.6918,-7.6953,-7.7054,-7.7105,-7.7192,-7.7297,-7.7347,-7.7339,-7.7493,-7.7456,-7.7459,-7.7464,-7.7524,-7.7534,-7.7543,-7.7421,-7.742,-7.742,0,0,-7.6449,-7.6515,-7.6594,-7.6657,-7.6752,-7.6802,-7.6821,-7.6921,-7.6956,-7.706,-7.7089,-7.716,-7.7298,-7.7359,-7.7408,-7.75,-7.7515,-7.7524,-7.755,-7.7609,-7.7617,-7.7625,-7.7656,-7.7667,-7.7532,-7.7532,-7.7532,0,-7.6451,-7.6574,-7.6632,-7.6715,-7.677,-7.681,-7.6891,-7.6949,-7.7063,-7.71,-7.7092,-7.7268,-7.7329,-7.7449,-7.7472,-7.7511,-7.7534,-7.7511,-7.7612,-7.762,-7.7628,-7.7659,-7.7671,-7.7533,-7.7533,-7.7533,-7.7533,0,-7.6572,-7.6657,-7.671,-7.6823,-7.6885,-7.6966,-7.7035,-7.7091,-7.712,-7.717,-7.7276,-7.7353,-7.7448,-7.748,-7.7508,-7.7606,-7.7598,-7.7601,-7.7582,-7.7638,-7.7668,-7.768,-7.7533,-7.7533,-7.7533,-7.7533,0,0,-7.6614,-7.6763,-7.6781,-7.6833,-7.6944,-7.701,-7.7094,-7.7191,-7.7237,-7.7316,-7.7387,-7.7506,-7.751,-7.7565,-7.7601,-7.7653,-7.772,-7.7649,-7.7652,-7.7657,-7.7831,-7.7826,-7.7839,-7.7733,-7.7736,-7.7738,-7.7823,0,-7.6688,-7.6841,-7.6898,-7.7023,-7.7102,-7.7143,-7.7217,-7.7292,-7.7343,-7.7416,-7.7472,-7.7554,-7.7554,-7.7588,-7.7642,-7.77,-7.7755,-7.7696,-7.7797,-7.78,-7.777,-7.7855,-7.7849,-7.7926,-7.7835,-7.7837,-7.7839,0,-7.6794,-7.6878,-7.7011,-7.7115,-7.715,-7.7215,-7.7309,-7.738,-7.7467,-7.75,-7.7565,-7.7599,-7.7688,-7.7669,-7.7792,-7.775,-7.7796,-7.7832,-7.7837,-7.7844,-7.782,-7.7862,-7.7952,-7.7962,-7.7858,-7.7856,-7.7855,0,-7.6809,-7.6956,-7.7055,-7.7099,-7.7222,-7.7267,-7.732,-7.7406,-7.7461,-7.7544,-7.758,-7.7672,-7.7721,-7.779,-7.7848,-7.7829,-7.7966,-7.7951,-7.7994,-7.7993,-7.8017,-7.8014,-7.8112,-7.8052,-7.8052,-7.8052,-7.8052,0,-7.6884,-7.6963,-7.7064,-7.7124,-7.7215,-7.7281,-7.7368,-7.7424,-7.75,-7.7571,-7.7614,-7.7679,-7.7753,-7.7829,-7.7875,-7.7969,-7.7992,-7.802,-7.803,-7.8014,-7.801,-7.8042,-7.8037,-7.8055,-7.8054,-7.8054,-7.8053,0,-7.6914,-7.6985,-7.7095,-7.7205,-7.7235,-7.7296,-7.739,-7.745,-7.7505,-7.7595,-7.762,-7.7705,-7.7796,-7.7863,-7.7979,-7.8011,-7.8112,-7.8123,-7.8082,-7.8087,-7.8126,-7.812,-7.8245,-7.8264,-7.8193,-7.8194,-7.8195,0,-7.6955,-7.7018,-7.7136,-7.7188,-7.7242,-7.7325,-7.7383,-7.7451,-7.751,-7.7616,-7.7663,-7.7759,-7.7838,-7.7982,-7.8053,-7.8143,-7.8156,-7.8194,-7.8169,-7.8152,-7.8154,-7.8148,-7.8154,-7.8195,-7.8196,-7.8196,-7.8197,0,-7.702,-7.7053,-7.7136,-7.7233,-7.7302,-7.7381,-7.746,-7.75,-7.7582,-7.7646,-7.7741,-7.7803,-7.7926,-7.8019,-7.8117,-7.8171,-7.8197,-7.8205,-7.8219,-7.8201,-7.8174,-7.8188,-7.8089,-7.82,-7.82,-7.82,-7.82,-7.8199,-7.7055,-7.7114,-7.7207,-7.7298,-7.7366,-7.744,-7.7503,-7.7568,-7.7649,-7.7755,-7.7791,-7.789,-7.7978,-7.8113,-7.8168,-7.8246,-7.8244,-7.8265,-7.827,-7.8273,-7.8272,-7.8166,-7.8264,-7.8264,-7.8264,-7.8264,-7.8264,0,-7.7121,-7.7184,-7.7269,-7.738,-7.7452,-7.7476,-7.7566,-7.7624,-7.7711,-7.7792,-7.7871,-7.7982,-7.8074,-7.8155,-7.825,-7.8297,-7.8311,-7.8319,-7.8314,-7.8326,-7.8268,-7.8245,-7.8306,-7.8306,-7.8306,-7.8306,-7.8306,-7.8306,-7.7163,-7.7263,-7.7308,-7.7443,-7.7505,-7.7604,-7.7653,-7.7722,-7.7787,-7.791,-7.7987,-7.8041,-7.8122,-7.8225,-7.831,-7.8332,-7.8364,-7.8368,-7.8392,-7.8336,-7.833,-7.8325,-7.8304,-7.8376,-7.8376,-7.8444,-7.8444,-7.8445]},{"header":{"parameterUnit":"m.s-1","parameterCategory":1,"la1":30.2991,"la2":30.254,"lo1":-89.0895,"lo2":-89.0444,"dy":0.0017,"dx":0.0017,"nx":28,"ny":28,"refTime":"2024-03-24T09:00:00:Z","depth":0,"parameterNumber":3,"parameterNumberName":"V-component_of_WINDS"},"data":[0,0,0,0,0,0,0,0,0,0,0,0,0,0,0,0,0,0,0,0,0,0,0,0,0,0,0,0,0,0,0,0,0,0,0,0,0,0,0,0,0,0,0,0,0,0,0,0,0,0,0,0,0,0,0,0,0,0,5.7938,5.7938,0,5.7958,5.7958,5.7958,5.7913,5.7912,5.791,5.7909,5.7929,5.7931,5.7933,0,0,0,0,0,0,0,0,0,0,0,0,0,5.7863,5.7865,5.7938,5.7938,5.7938,5.7958,5.7958,5.7958,5.7913,5.7912,5.791,5.7908,5.7928,5.793,5.7933,0,0,0,0,0,0,0,0,0,0,0,0,0,5.7891,5.7866,5.7938,5.7918,5.7917,5.7958,5.7958,5.7958,5.7914,5.7912,5.7909,5.7907,5.7927,5.793,5.7933,5.7994,0,0,5.7942,5.7943,0,0,0,0,0,0,0,0,5.7889,5.7894,5.7921,5.792,5.7918,5.7931,5.7939,5.797,5.7914,5.7915,5.7909,5.7906,5.7931,5.7934,5.7942,5.7994,5.7995,5.7942,5.7944,5.7945,5.7946,0,0,0,0,0,0,0,5.7887,5.7892,5.7946,5.7921,5.792,5.7909,5.7911,5.7945,5.7935,5.7915,5.7911,5.7914,5.793,5.7939,5.7942,5.7996,5.7942,5.7944,5.7946,5.7947,5.8103,5.8105,0,0,0,0,0,0,5.7888,5.7891,5.7945,5.7946,5.7898,5.7912,5.7914,5.7929,5.7934,5.7933,5.7916,5.7912,5.7936,5.7939,5.7943,5.8017,5.7945,5.7947,5.7949,5.8101,5.8104,5.8106,0,0,0,0,0,0,5.7886,5.7893,5.7944,5.7918,5.7924,5.7916,5.7933,5.793,5.794,5.7936,5.7934,5.7928,5.7934,5.7939,5.7982,5.8017,5.7949,5.7951,5.8098,5.8102,5.8105,5.8164,0,0,0,0,0,0,5.7884,5.7893,5.7915,5.7919,5.7925,5.7983,5.7935,5.7932,5.7945,5.794,5.7946,5.7945,5.7933,5.7978,5.7985,5.8019,5.7953,5.8095,5.81,5.8104,5.8159,5.8169,5.8178,0,0,0,0,0,5.7882,5.793,5.7916,5.7923,5.7953,5.7985,5.7988,5.7974,5.7948,5.7971,5.7969,5.7944,5.8012,5.7983,5.799,5.8026,5.8092,5.8098,5.8104,5.8154,5.8167,5.8177,0,0,0,0,0,0,5.7929,5.7929,5.7915,5.7965,5.7975,5.7977,5.8005,5.7987,5.8005,5.7999,5.7981,5.7983,5.803,5.8032,5.8,5.8087,5.8048,5.8055,5.8084,5.8096,5.8105,5.8104,5.7956,0,0,0,0,0,5.7945,5.7971,5.797,5.8015,5.8021,5.8013,5.8026,5.8014,5.8024,5.8028,5.8029,5.804,5.8064,5.808,5.8101,5.8159,5.8161,5.8187,5.8197,5.8204,5.8211,5.8245,5.8258,5.8125,5.8125,5.8124,0,0,5.7979,5.7982,5.7999,5.8024,5.8031,5.8059,5.8016,5.8047,5.8068,5.8032,5.8074,5.8076,5.8087,5.8139,5.8162,5.8142,5.8249,5.8212,5.8218,5.822,5.8252,5.8265,5.8276,5.8128,5.8128,5.8127,0,0,5.8055,5.8059,5.8098,5.8107,5.8118,5.8113,5.8123,5.8128,5.8128,5.817,5.8145,5.8171,5.8211,5.8221,5.8232,5.8316,5.8296,5.8324,5.8374,5.8407,5.8418,5.8427,5.846,5.8471,5.833,5.833,5.8331,0,5.8095,5.8136,5.812,5.8154,5.8167,5.8138,5.8179,5.8187,5.8205,5.8215,5.8193,5.8246,5.8251,5.8307,5.8328,5.8337,5.8349,5.8323,5.8417,5.8427,5.8435,5.8466,5.8478,5.8334,5.8334,5.8333,5.8333,0,5.8187,5.8216,5.8246,5.8266,5.8282,5.8319,5.8311,5.8329,5.8317,5.8315,5.836,5.8366,5.839,5.8402,5.8389,5.8457,5.8445,5.842,5.8381,5.8451,5.848,5.8492,5.8339,5.8338,5.8337,5.8336,0,0,5.829,5.8304,5.8315,5.8326,5.8338,5.8361,5.8398,5.8422,5.844,5.8454,5.8486,5.8523,5.8502,5.8514,5.8503,5.8532,5.8602,5.8504,5.8504,5.8524,5.868,5.87,5.8714,5.8589,5.8591,5.8593,5.868,0,5.8368,5.8432,5.8421,5.8483,5.8512,5.8486,5.8519,5.8531,5.8531,5.8556,5.8555,5.8583,5.8552,5.8559,5.8587,5.8588,5.8634,5.8581,5.862,5.8622,5.8619,5.8728,5.8748,5.883,5.8691,5.8693,5.8694,0,5.8466,5.8486,5.8552,5.8563,5.8575,5.8604,5.8628,5.8651,5.8666,5.8664,5.8679,5.8664,5.8703,5.8663,5.8718,5.8682,5.8698,5.8701,5.8704,5.8708,5.8663,5.8737,5.8856,5.8869,5.8712,5.871,5.8709,0,5.8538,5.8581,5.8627,5.8637,5.865,5.8672,5.8679,5.8691,5.8708,5.8728,5.8739,5.8764,5.8778,5.8798,5.8791,5.8761,5.8848,5.8806,5.8849,5.8849,5.8868,5.8868,5.8993,5.8876,5.8876,5.8876,5.8875,0,5.8626,5.8668,5.8661,5.8689,5.8737,5.8724,5.8772,5.8775,5.8787,5.8817,5.8796,5.8824,5.8812,5.884,5.8835,5.8883,5.8889,5.8889,5.8888,5.8892,5.8892,5.8903,5.8897,5.8879,5.8878,5.8878,5.8877,0,5.8715,5.8711,5.876,5.8771,5.8774,5.8809,5.8818,5.8846,5.8845,5.8883,5.8892,5.8891,5.8923,5.8918,5.8953,5.895,5.9011,5.9001,5.9006,5.9005,5.9049,5.9045,5.9186,5.9206,5.9074,5.9076,5.9077,0,5.8772,5.8805,5.8819,5.8838,5.8847,5.8877,5.8895,5.8885,5.8905,5.8926,5.8951,5.8982,5.9007,5.9061,5.9063,5.9092,5.9084,5.9131,5.9087,5.9092,5.9087,5.9086,5.9091,5.914,5.9142,5.9143,5.9144,0,5.8875,5.8873,5.8899,5.8926,5.8948,5.8969,5.8987,5.9004,5.8996,5.902,5.9053,5.9073,5.9111,5.9143,5.917,5.9178,5.9161,5.9158,5.9169,5.9175,5.9178,5.918,5.9032,5.9154,5.9153,5.9153,5.9152,5.9152,5.8951,5.898,5.8996,5.9027,5.9041,5.9059,5.9087,5.9091,5.9119,5.915,5.9142,5.9182,5.9198,5.9233,5.9244,5.9276,5.9258,5.9274,5.9279,5.9284,5.929,5.9172,5.928,5.928,5.928,5.9279,5.9279,0,5.9055,5.9065,5.9094,5.9122,5.9147,5.9129,5.915,5.9172,5.9207,5.9224,5.925,5.9291,5.9323,5.9329,5.936,5.9384,5.9378,5.9393,5.9392,5.9395,5.9303,5.9291,5.9398,5.9398,5.9398,5.9398,5.9398,5.9398,5.9112,5.9162,5.9162,5.9218,5.9227,5.9266,5.928,5.9298,5.9312,5.9359,5.9386,5.939,5.9404,5.9437,5.9466,5.9467,5.948,5.95,5.9498,5.9412,5.94,5.9389,5.9378,5.9502,5.9502,5.9588,5.9588,5.9589]}]]